When you browse on this site, cookies collect data to enhance your experience and personalize the content and advertising you see.
Visit our Privacy Policy to learn more. By continuing to use the site, you agree to this use of cookies and data.
  • In Austria
  • List of Countries
  • For 7 days
  • Water Temperature
  • Satellite Maps
  • Weather Map
  • News
  • Weather Widgets
  • user-avatar
    Login

    Hourly Weather Elbasan

    Today, 16 July, Tuesday

    Time Temperature Precipitation Wind Pressure Humidity
    00:00 +21°C° 0.2 mm 1 mps 730 mmHg 80%
    01:00 +20°C° 0 mm 1 mps 730 mmHg 81%
    02:00 +20°C° 0.4 mm 1 mps 730 mmHg 82%
    03:00 +19°C° 0.4 mm 2 mps 730 mmHg 83%
    04:00 +19°C° 0.4 mm 2 mps 730 mmHg 84%
    05:00 +19°C° 0.5 mm 2 mps 730 mmHg 84%
    06:00 +19°C° 0.5 mm 2 mps 730 mmHg 83%
    07:00 +20°C° 0 mm 3 mps 730 mmHg 83%
    08:00 +20°C° 0.4 mm 2 mps 730 mmHg 82%
    09:00 +20°C° 0.4 mm 2 mps 730 mmHg 81%
    10:00 +20°C° 0.4 mm 2 mps 730 mmHg 79%
    11:00 +20°C° 1.1 mm 2 mps 730 mmHg 81%
    12:00 +19°C° 1.1 mm 2 mps 730 mmHg 82%
    13:00 +19°C° 1.1 mm 3 mps 730 mmHg 83%
    14:00 +19°C° 0.8 mm 3 mps 730 mmHg 84%
    15:00 +18°C° 0.8 mm 3 mps 730 mmHg 84%
    16:00 +18°C° 0.8 mm 3 mps 730 mmHg 85%
    17:00 +18°C° 0.3 mm 2 mps 730 mmHg 85%
    18:00 +18°C° 0.3 mm 2 mps 730 mmHg 85%
    19:00 +18°C° 0.3 mm 2 mps 730 mmHg 85%
    20:00 +18°C° 0 mm 2 mps 730 mmHg 85%
    21:00 +17°C° 0 mm 2 mps 730 mmHg 85%
    22:00 +17°C° 0 mm 2 mps 731 mmHg 85%
    23:00 +17°C° 0 mm 2 mps 731 mmHg 84%

    Tomorrow, 17 July, Wednesday

    Time Temperature Precipitation Wind Pressure Humidity
    00:00 +17°C° 0 mm 2 mps 731 mmHg 84%
    01:00 +17°C° 0 mm 2 mps 731 mmHg 83%
    02:00 +17°C° 0 mm 2 mps 730 mmHg 83%
    03:00 +17°C° 0 mm 2 mps 730 mmHg 83%
    04:00 +17°C° 0 mm 2 mps 730 mmHg 82%
    05:00 +18°C° 0 mm 2 mps 731 mmHg 78%
    06:00 +20°C° 0 mm 2 mps 731 mmHg 74%
    07:00 +21°C° 0 mm 2 mps 731 mmHg 69%
    08:00 +24°C° 0 mm 2 mps 732 mmHg 61%
    09:00 +26°C° 0 mm 2 mps 732 mmHg 53%
    10:00 +27°C° 0 mm 2 mps 732 mmHg 46%
    11:00 +28°C° 0 mm 2 mps 732 mmHg 44%
    12:00 +29°C° 0 mm 2 mps 732 mmHg 42%
    13:00 +29°C° 0 mm 2 mps 732 mmHg 40%
    14:00 +29°C° 0 mm 2 mps 732 mmHg 42%
    15:00 +29°C° 0 mm 2 mps 732 mmHg 43%
    16:00 +29°C° 0 mm 2 mps 732 mmHg 44%
    17:00 +27°C° 0 mm 2 mps 732 mmHg 52%
    18:00 +25°C° 0 mm 1 mps 732 mmHg 59%
    19:00 +23°C° 0 mm 1 mps 732 mmHg 66%
    20:00 +22°C° 0 mm 1 mps 732 mmHg 68%
    21:00 +21°C° 0 mm 1 mps 732 mmHg 69%
    22:00 +20°C° 0 mm 1 mps 732 mmHg 70%
    23:00 +20°C° 0 mm 1 mps 732 mmHg 69%

    Day after tomorrow, 18 July, Thursday

    Time Temperature Precipitation Wind Pressure Humidity
    00:00 +20°C° 0 mm 1 mps 732 mmHg 68%
    01:00 +20°C° 0 mm 1 mps 732 mmHg 68%
    02:00 +19°C° 0 mm 1 mps 732 mmHg 67%
    03:00 +18°C° 0 mm 2 mps 732 mmHg 66%
    04:00 +18°C° 0 mm 2 mps 732 mmHg 65%
    05:00 +21°C° 0 mm 1 mps 732 mmHg 62%
    06:00 +22°C° 0 mm 1 mps 732 mmHg 58%
    07:00 +24°C° 0 mm 1 mps 732 mmHg 54%
    08:00 +26°C° 0 mm 1 mps 733 mmHg 49%
    09:00 +28°C° 0 mm 1 mps 733 mmHg 44%
    10:00 +29°C° 0 mm 1 mps 733 mmHg 39%
    11:00 +30°C° 0 mm 2 mps 733 mmHg 37%
    12:00 +30°C° 0 mm 2 mps 733 mmHg 36%
    13:00 +31°C° 0 mm 3 mps 733 mmHg 35%
    14:00 +30°C° 0 mm 3 mps 733 mmHg 40%
    15:00 +29°C° 0 mm 3 mps 733 mmHg 44%
    16:00 +29°C° 0 mm 3 mps 732 mmHg 48%
    17:00 +27°C° 0.1 mm 2 mps 733 mmHg 56%
    18:00 +25°C° 0.1 mm 2 mps 733 mmHg 64%
    19:00 +23°C° 0.1 mm 1 mps 733 mmHg 72%
    20:00 +22°C° 0 mm 1 mps 733 mmHg 74%
    21:00 +22°C° 0 mm 1 mps 733 mmHg 76%
    22:00 +21°C° 0 mm 1 mps 733 mmHg 78%
    23:00 +21°C° 0 mm 1 mps 734 mmHg 78%

    19 July, Friday

    Time Temperature Precipitation Wind Pressure Humidity
    00:00 +21°C° 0 mm 1 mps 734 mmHg 77%
    01:00 +20°C° 0 mm 1 mps 734 mmHg 77%
    02:00 +20°C° 0 mm 1 mps 734 mmHg 77%
    03:00 +20°C° 0 mm 1 mps 733 mmHg 76%
    04:00 +20°C° 0 mm 1 mps 733 mmHg 76%
    05:00 +21°C° 0 mm 1 mps 734 mmHg 71%
    06:00 +21°C° 0 mm 0 mps 734 mmHg 65%
    07:00 +23°C° 0 mm 0 mps 734 mmHg 60%
    08:00 +27°C° 0 mm 1 mps 734 mmHg 55%
    09:00 +28°C° 0 mm 1 mps 734 mmHg 49%
    10:00 +30°C° 0 mm 2 mps 735 mmHg 44%
    11:00 +30°C° 0.3 mm 2 mps 734 mmHg 44%
    12:00 +30°C° 0.3 mm 2 mps 734 mmHg 45%
    13:00 +30°C° 0.3 mm 3 mps 734 mmHg 45%
    14:00 +30°C° 0.6 mm 3 mps 734 mmHg 48%
    15:00 +29°C° 0.6 mm 3 mps 734 mmHg 50%
    16:00 +28°C° 0.6 mm 3 mps 734 mmHg 53%
    17:00 +27°C° 0.2 mm 2 mps 734 mmHg 58%
    18:00 +25°C° 0.2 mm 1 mps 734 mmHg 63%
    19:00 +24°C° 0.2 mm 1 mps 734 mmHg 68%
    20:00 +23°C° 0 mm 1 mps 734 mmHg 69%
    21:00 +22°C° 0 mm 1 mps 735 mmHg 70%
    22:00 +22°C° 0 mm 1 mps 735 mmHg 72%
    23:00 +21°C° 0 mm 1 mps 735 mmHg 72%

    20 July, Saturday

    Time Temperature Precipitation Wind Pressure Humidity
    00:00 +21°C° 0 mm 1 mps 735 mmHg 72%
    01:00 +21°C° 0 mm 1 mps 735 mmHg 72%
    02:00 +20°C° 0 mm 1 mps 735 mmHg 72%
    03:00 +20°C° 0 mm 1 mps 735 mmHg 72%
    04:00 +20°C° 0 mm 1 mps 735 mmHg 72%
    05:00 +22°C° 0 mm 1 mps 735 mmHg 67%
    06:00 +24°C° 0 mm 1 mps 735 mmHg 62%
    07:00 +23°C° 0 mm 0 mps 735 mmHg 57%
    08:00 +27°C° 0 mm 1 mps 736 mmHg 51%
    09:00 +29°C° 0 mm 1 mps 736 mmHg 45%
    10:00 +31°C° 0 mm 1 mps 736 mmHg 39%
    11:00 +31°C° 0 mm 2 mps 736 mmHg 38%
    12:00 +32°C° 0 mm 2 mps 736 mmHg 36%
    13:00 +33°C° 0 mm 3 mps 736 mmHg 34%
    14:00 +33°C° 0 mm 3 mps 736 mmHg 36%
    15:00 +31°C° 0 mm 3 mps 736 mmHg 38%
    16:00 +31°C° 0 mm 3 mps 735 mmHg 40%
    17:00 +29°C° 0 mm 2 mps 735 mmHg 48%
    18:00 +26°C° 0 mm 1 mps 735 mmHg 55%
    19:00 +24°C° 0 mm 1 mps 735 mmHg 63%
    20:00 +24°C° 0 mm 1 mps 736 mmHg 64%
    21:00 +23°C° 0 mm 1 mps 736 mmHg 65%
    22:00 +23°C° 0 mm 1 mps 736 mmHg 67%
    23:00 +22°C° 0 mm 1 mps 736 mmHg 66%

    21 July, Sunday

    Time Temperature Precipitation Wind Pressure Humidity
    00:00 +22°C° 0 mm 1 mps 736 mmHg 66%
    01:00 +22°C° 0 mm 1 mps 736 mmHg 66%
    02:00 +22°C° 0 mm 1 mps 736 mmHg 66%
    03:00 +22°C° 0 mm 1 mps 736 mmHg 66%
    04:00 +22°C° 0 mm 1 mps 735 mmHg 65%
    05:00 +24°C° 0 mm 1 mps 736 mmHg 61%
    06:00 +25°C° 0 mm 1 mps 736 mmHg 58%
    07:00 +27°C° 0 mm 1 mps 736 mmHg 54%
    08:00 +29°C° 0 mm 1 mps 736 mmHg 49%
    09:00 +31°C° 0 mm 1 mps 737 mmHg 44%
    10:00 +33°C° 0 mm 1 mps 737 mmHg 39%
    11:00 +34°C° 0 mm 2 mps 737 mmHg 37%
    12:00 +35°C° 0 mm 2 mps 737 mmHg 35%
    13:00 +36°C° 0 mm 3 mps 736 mmHg 33%
    14:00 +35°C° 0 mm 3 mps 736 mmHg 36%
    15:00 +34°C° 0 mm 3 mps 736 mmHg 39%
    16:00 +33°C° 0 mm 3 mps 736 mmHg 42%
    17:00 +30°C° 0 mm 2 mps 736 mmHg 48%
    18:00 +28°C° 0 mm 1 mps 736 mmHg 55%
    19:00 +26°C° 0 mm 1 mps 736 mmHg 61%
    20:00 +26°C° 0 mm 1 mps 736 mmHg 63%
    21:00 +25°C° 0 mm 1 mps 736 mmHg 64%
    22:00 +24°C° 0 mm 1 mps 736 mmHg 65%
    23:00 +24°C° 0 mm 1 mps 736 mmHg 65%
    Show more